Home   Weather   Milan   Past weeks
Flag for Canada

Past Weather in Milan, Quebec, Canada — Yesterday and Last 2 Weeks

Currently: 32 °F. Passing clouds. (Weather station: Sherbrooke, Canada). See more current weather

Past Weather in Milan — Graph

°F

Milan Temperature Yesterday

Maximum temperature yesterday: 46 °F (at 10:42 am)
Minimum temperature yesterday: 41 °F (at 11:15 pm)
Average temperature yesterday: 45 °F

High & Low Weather Summary for the Past Weeks

 TemperatureHumidityPressure
High48 °F (Nov 27, 1:00 pm)100% (Nov 25, 2:29 pm)30.47 "Hg (Nov 25, 2:29 pm)
Low10 °F (Nov 24, 7:00 am)36% (Dec 5, 1:00 pm)29.27 "Hg (Nov 28, 12:00 am)
Average34 °F79%29.99 "Hg
* Reported Nov 23 4:00 pm — Dec 8 4:31 pm, Milan. Weather by CustomWeather, © 2022

Note: Actual official high and low records may vary slightly from our data, if they occured in-between our weather recording intervals... More about our weather records

Milan Weather History for the Previous 24 Hours

Scroll right to see more
 ConditionsComfort  
Time TempWeatherWind HumidityBarometerVisibility
4:31 pm
Thu, Dec 8
32 °FOvercast.9 mph80%30.29 "Hg9 mi
4:00 pm34 °FOvercast.9 mph75%30.28 "Hg9 mi
3:00 pm34 °FOvercast.10 mph75%30.26 "Hg9 mi
2:00 pm34 °FOvercast.9 mph81%30.24 "Hg9 mi
1:08 pm36 °FMostly cloudy.9 mph81%30.23 "Hg9 mi
12:00 pm34 °FOvercast.8 mph87%30.22 "Hg9 mi
11:00 am34 °FOvercast.7 mph93%30.22 "Hg9 mi
10:00 am34 °FOvercast.7 mph93%30.23 "Hg9 mi
9:24 am34 °FOvercast.8 mph93%30.22 "Hg9 mi
9:00 am34 °FOvercast.5 mph93%30.22 "Hg9 mi
8:04 am36 °FLight rain. Overcast.8 mph87%30.21 "Hg9 mi
7:23 am36 °FOvercast.8 mph93%30.20 "Hg9 mi
7:00 am36 °FLow clouds.9 mph93%30.19 "Hg9 mi
6:25 am36 °FMostly cloudy.12 mph93%30.19 "Hg9 mi
5:52 am36 °FLight rain. Low clouds.10 mph93%30.18 "Hg9 mi
5:19 am36 °FLight rain. Low clouds.10 mph93%30.17 "Hg7 mi
5:10 am36 °FLight rain. Fog.10 mph100%30.16 "Hg3 mi
4:44 am36 °FLight rain. Fog.10 mph100%30.16 "Hg2 mi
4:20 am36 °FLight rain. Fog.12 mph100%30.16 "Hg4 mi
4:00 am36 °FFog.13 mph100%30.15 "Hg5 mi
3:00 am37 °FLight rain. Fog.12 mph93%30.13 "Hg4 mi
2:26 am37 °FLow clouds.12 mph93%30.13 "Hg8 mi
2:17 am37 °FLight rain. Low clouds.12 mph100%30.13 "Hg7 mi
2:00 am37 °FLow clouds.12 mph100%30.12 "Hg9 mi
1:00 am39 °FLight rain. Fog.7 mph100%30.11 "Hg3 mi
12:38 am41 °FLight rain. Fog.9 mph93%30.10 "Hg5 mi
12:04 am41 °FLow clouds.13 mph93%30.09 "Hg9 mi
11:56 pm
Wed, Dec 7
41 °FLight rain. Fog.9 mph100%30.09 "Hg3 mi
11:15 pm41 °FLight rain. Fog.15 mph100%30.08 "Hg1 mi
10:51 pm43 °FLow clouds.12 mph100%30.07 "Hg8 mi
10:44 pm43 °FLight rain. Fog.9 mph100%30.06 "Hg3 mi
10:39 pm43 °FLight rain. Fog.9 mph100%30.06 "Hg2 mi
10:11 pm45 °FLight rain. Fog.9 mph100%30.06 "Hg2 mi
10:00 pm45 °FLight rain. Fog.14 mph100%30.05 "Hg2 mi
9:33 pm45 °FLight rain. Fog.10 mph100%30.06 "Hg2 mi
9:24 pm45 °FLight rain. Fog.12 mph100%30.05 "Hg6 mi
9:00 pm46 °FLow clouds.9 mph93%30.05 "Hg9 mi
8:33 pm46 °FLow clouds.7 mph100%30.04 "Hg9 mi
8:00 pm46 °FLight rain. Fog.5 mph100%30.04 "Hg3 mi
6:43 pm46 °FLight rain. Fog.3 mph100%30.03 "Hg2 mi
6:22 pm46 °FLight rain. Fog.2 mph93%30.03 "Hg1 mi
6:17 pm46 °FLight rain. Fog.2 mph93%30.03 "Hg1 mi
Weather by CustomWeather, © 2022

See weather overview